Theta_e
317 317 317 317 316 315 315 314 314 312 310 315 313 319 318 313 308 319 323 324 320 311 305 308 307 304 303 307 306 306 304 303 305 304 305 303 306 305 304 302 301 304 303 302 301 302 300 301 298 301 302 303 304 306 306 307 306 306 302 306 304 318 302 298 299 302 305 307 309 308 308 306 302 302 302 301 298 299 297 297 300 297 299 295 301 302 306
316 316 317 316 316 315 315 314 314 313 310 309 312 316 315 313 312 315 322 325 319 309 300 301 303 303 307 306 303 306 305 304 303 303 304 301 302 303 305 305 307 303 305 303 301 305 299 302 301 301 305 302 307 307 306 307 303 303 300 301 305 299 302 299 293 293 295 299 304 304 305 305 300 298 300 302 302 303 301 301 302 295 299 300 301 296 302
316 316 317 316 316 315 314 314 314 313 312 311 312 313 315 315 315 314 315 316 317 304 306 303 301 302 304 303 302 303 304 308 305 304 304 306 303 304 302 304 305 303 304 304 304 304 301 302 303 303 303 302 308 306 306 307 303 307 312 319 307 304 304 299 293 289 288 289 290 292 295 299 301 302 303 304 303 304 301 294 297 289 299 303 300 304 314
316 317 317 316 316 315 314 314 314 314 312 310 313 319 316 312 304 310 313 313 312 309 309 306 304 302 304 306 304 302 301 303 305 305 304 305 304 305 303 305 305 303 303 302 302 302 305 302 303 302 301 304 305 305 307 306 305 314 315 318 309 307 305 304 302 296 292 294 299 305 307 303 298 300 303 302 304 304 304 303 296 292 301 304 309 313 313
316 317 317 316 316 315 315 314 314 313 311 310 311 319 315 316 306 308 306 313 308 305 306 304 306 302 308 302 305 301 303 304 304 306 302 304 304 305 304 302 301 303 303 301 301 303 303 304 304 303 301 303 304 306 306 306 311 322 315 319 306 304 299 301 303 303 301 302 302 304 307 302 302 302 302 304 303 307 306 302 300 306 301 296 311 317 313
317 317 317 317 316 315 315 314 314 313 311 310 314 317 323 304 314 314 316 305 301 305 308 307 305 305 305 303 305 302 300 302 300 303 305 306 305 301 306 305 304 304 303 302 301 302 303 304 301 303 304 302 304 303 305 306 316 319 307 309 305 302 298 301 301 300 302 303 304 305 304 304 303 303 303 303 308 309 307 307 310 311 300 298 310 315 314
316 316 317 318 316 316 316 315 314 312 310 310 319 322 321 316 317 317 320 310 312 308 308 308 305 304 306 306 303 300 301 301 303 303 301 305 305 305 304 302 304 304 306 305 305 308 300 301 306 307 301 303 301 300 303 305 307 305 304 305 309 303 299 302 301 299 301 302 303 305 304 304 304 304 304 306 307 309 310 309 312 311 309 315 315 314 313
316 316 317 317 317 317 317 315 314 312 309 316 322 326 317 315 313 314 321 317 313 312 309 309 305 305 311 306 305 302 303 301 304 304 301 299 301 304 301 302 304 304 306 306 305 308 307 306 307 311 306 302 307 303 306 300 304 303 302 306 307 301 301 306 301 298 298 302 304 304 303 303 301 304 307 307 308 311 311 311 312 313 312 313 314 313 312
316 316 316 317 317 316 317 316 314 312 310 321 322 324 326 323 323 324 318 312 313 313 310 308 309 305 307 303 303 303 302 301 304 303 304 301 304 303 301 304 305 304 305 307 305 307 309 309 306 306 306 300 305 302 307 305 301 304 302 304 307 305 300 303 301 295 296 301 301 302 303 304 303 304 304 305 307 306 308 308 311 310 310 312 312 309 309
314 315 316 317 317 317 316 316 315 311 311 313 314 318 324 326 326 326 323 312 316 310 309 306 305 302 308 305 302 304 303 305 305 302 305 305 309 304 303 303 302 306 309 304 306 306 306 305 307 306 305 305 304 304 305 305 305 304 302 305 300 303 301 296 297 292 294 300 301 301 301 300 299 299 302 306 310 311 311 312 313 314 315 311 307 307 317
314 315 315 316 317 317 318 317 316 312 313 309 308 311 316 319 320 321 323 313 311 310 308 306 303 311 306 307 306 307 306 305 308 304 306 306 304 307 306 304 307 304 306 306 310 308 307 307 308 307 306 306 305 305 305 308 305 308 307 305 305 305 304 298 303 294 294 299 300 301 296 290 293 306 307 308 309 310 307 307 310 313 317 313 316 317 321
314 314 316 316 317 317 318 317 316 313 312 314 313 311 317 321 322 323 319 312 309 311 306 305 308 310 305 307 306 305 306 305 303 305 302 305 306 306 304 304 306 305 310 313 312 310 312 311 307 307 305 306 306 308 307 304 304 313 305 303 304 304 302 297 304 295 294 298 302 294 290 293 302 308 308 309 313 312 310 311 313 314 317 319 318 319 320
314 314 315 316 316 317 317 317 316 315 312 314 313 310 315 319 320 319 317 316 312 312 307 308 311 311 310 309 306 308 309 308 307 306 306 305 305 305 307 308 311 305 310 307 310 310 304 305 305 307 304 304 306 306 306 307 305 307 305 305 302 302 300 299 299 300 299 296 296 286 290 305 307 307 308 311 308 308 311 308 311 314 315 318 317 318 319
314 314 315 316 316 318 318 318 317 316 313 312 311 312 314 318 320 318 319 315 313 317 315 311 311 310 310 308 308 308 307 307 308 307 304 306 304 305 306 307 306 307 306 313 310 309 303 303 299 301 302 305 304 303 305 305 305 305 306 305 304 304 302 300 294 301 292 295 295 294 304 304 305 306 307 306 302 303 305 299 303 312 316 319 318 320 320
314 314 315 316 317 318 318 318 318 317 315 311 313 313 315 317 325 324 321 320 312 315 317 307 310 310 309 308 309 307 305 312 306 304 306 308 305 307 308 308 308 308 309 308 306 308 301 302 298 297 299 296 291 296 306 302 307 306 306 306 304 306 299 304 296 296 298 292 291 294 294 292 300 310 310 311 311 310 313 307 301 311 318 320 319 319 320
314 314 315 316 317 318 318 318 318 317 316 311 314 313 314 318 325 328 322 318 315 305 312 314 314 311 308 308 310 307 306 308 306 307 304 311 305 310 310 310 309 308 307 306 311 305 306 300 296 295 291 296 301 299 297 305 303 305 306 307 307 305 304 307 299 296 295 295 291 290 290 298 305 309 311 312 312 311 311 304 298 309 319 320 322 320 320
314 315 315 316 317 318 318 318 318 317 316 311 312 312 312 321 322 323 320 319 320 311 320 320 317 313 310 308 309 308 311 304 311 305 306 308 312 308 307 309 310 309 307 308 310 303 300 301 301 299 302 305 297 295 301 299 300 300 303 305 308 304 301 301 295 295 297 296 292 291 298 299 307 309 310 312 311 311 307 292 295 309 317 320 321 321 321
314 314 315 316 316 317 317 318 318 318 316 313 312 311 311 316 320 323 322 318 313 313 318 319 314 309 308 309 309 314 314 311 315 314 309 312 313 310 307 307 305 306 311 304 306 300 299 298 296 296 295 307 306 301 284 296 295 297 299 301 296 299 302 298 295 295 296 298 294 298 301 309 310 310 312 314 314 309 296 290 300 314 316 319 320 321 322
314 314 315 315 316 316 317 317 318 318 317 311 313 314 315 322 323 321 321 316 315 310 317 322 322 317 316 318 315 313 312 313 312 308 308 308 311 312 312 310 311 307 311 303 306 302 299 301 305 300 297 301 305 293 299 290 294 302 302 297 299 300 301 300 299 294 294 295 295 296 299 307 310 313 314 315 313 297 295 304 316 317 317 319 321 321 323
314 314 314 314 315 316 316 317 318 318 318 312 311 310 312 316 318 320 318 314 316 311 313 314 318 314 316 313 312 315 313 311 314 310 308 305 317 312 309 302 310 310 307 307 300 304 301 300 301 304 297 299 302 307 297 300 303 299 299 301 297 298 296 294 294 298 300 298 294 290 286 303 313 316 311 313 305 304 312 315 316 319 318 320 321 322 322
314 314 314 314 315 316 316 316 317 318 318 316 311 311 310 321 324 325 330 324 315 307 309 318 317 314 315 315 316 315 312 308 311 307 311 311 319 314 296 303 306 306 306 307 300 300 303 298 304 303 304 301 305 303 295 297 300 307 305 301 301 306 296 296 297 300 293 294 293 291 302 308 314 311 303 311 312 315 317 315 312 317 319 320 321 322 323
313 314 315 315 315 315 315 316 317 317 318 316 312 313 310 317 318 319 321 321 317 311 311 315 317 317 319 319 320 318 316 314 315 316 314 309 322 315 316 318 316 311 315 314 308 307 307 307 307 303 300 302 307 300 304 293 294 302 309 306 294 305 304 304 294 303 300 297 301 306 311 311 312 314 313 313 315 318 318 317 316 316 318 323 320 321 323
314 314 315 315 315 315 315 316 316 316 317 316 313 313 310 313 314 319 317 316 321 319 319 318 319 320 323 322 322 322 327 322 319 321 318 311 310 316 314 314 314 318 320 320 313 309 310 307 306 307 305 306 302 301 303 301 298 302 300 310 306 310 312 312 305 302 307 309 309 311 309 310 311 314 315 315 315 317 318 318 316 317 320 322 321 322 323
314 314 315 315 315 315 315 316 316 317 317 316 314 312 311 313 314 314 319 322 319 313 316 317 314 311 313 314 318 320 319 321 328 322 322 323 309 307 313 318 320 317 319 323 324 315 311 310 311 312 303 309 310 301 298 296 301 306 304 303 306 310 311 306 302 305 298 293 309 309 309 311 312 312 315 315 316 315 317 317 317 319 321 322 324 323 323
314 314 314 315 315 315 315 316 316 316 316 315 315 316 316 314 317 319 313 312 314 312 306 312 313 316 316 319 319 317 318 327 321 322 319 320 320 310 311 320 325 316 317 319 322 316 317 308 308 306 301 311 308 297 307 301 301 308 300 302 303 304 311 305 306 305 300 301 307 307 310 311 313 313 312 313 316 317 318 318 319 320 321 321 322 324 323
314 314 314 314 315 315 315 315 315 315 315 315 314 312 312 312 316 316 315 317 320 317 309 309 313 321 319 315 312 315 319 318 317 316 316 315 316 316 322 324 325 321 320 319 320 316 313 311 309 308 303 305 311 302 302 306 305 310 304 302 308 308 311 302 306 302 305 308 309 310 311 310 310 312 313 315 315 315 316 317 317 317 317 319 322 321 320
313 313 314 314 314 315 315 315 315 315 315 314 314 314 313 314 316 313 312 317 313 310 313 309 313 318 322 318 321 318 317 317 316 316 315 315 314 316 319 321 321 322 321 318 318 314 316 311 309 306 310 311 312 311 311 309 307 306 304 307 312 306 303 307 304 300 299 301 306 310 302 302 308 312 314 316 317 317 316 316 316 317 317 318 318 319 321
313 314 313 314 314 314 314 314 315 315 314 314 314 314 314 313 314 317 318 318 315 309 309 309 310 314 317 315 322 318 317 317 316 316 314 314 315 313 312 314 317 319 320 314 311 308 308 304 303 310 315 314 309 307 311 312 307 305 305 306 311 307 308 306 301 300 300 308 312 314 312 310 311 312 314 316 317 318 316 316 316 317 317 318 318 317 319
313 313 313 314 314 314 314 314 314 315 315 312 313 312 312 314 315 316 317 321 321 316 313 312 313 309 305 312 318 316 318 317 316 315 314 313 313 317 320 320 316 316 319 316 313 314 311 308 315 314 312 316 310 306 305 299 299 298 304 312 312 314 315 312 311 311 311 314 314 315 313 309 312 315 314 316 318 317 317 317 318 318 318 318 317 318 318
313 313 313 313 313 313 313 314 314 315 315 313 311 310 311 318 321 321 320 324 324 322 312 308 304 310 316 315 313 315 315 317 316 315 314 312 313 316 316 317 320 322 321 318 314 308 312 311 315 317 320 323 312 309 303 304 301 305 315 314 316 315 315 316 316 312 309 315 315 316 316 315 316 317 316 318 320 319 316 314 315 316 318 319 318 318 318
313 313 313 313 313 313 313 314 314 315 314 311 309 308 306 306 316 321 314 317 319 321 317 314 306 311 308 314 315 313 315 315 314 312 312 312 319 318 320 320 321 320 314 319 320 316 318 311 312 315 319 319 314 309 303 303 302 304 312 315 315 315 315 316 317 317 317 316 317 317 316 316 317 316 316 315 315 317 316 315 317 321 320 320 319 319 319
312 313 313 313 313 313 314 314 314 314 314 309 305 308 313 314 316 315 313 314 318 319 313 305 304 305 304 307 312 316 314 314 315 313 318 323 320 318 323 318 323 317 317 317 320 315 311 317 315 314 314 314 315 307 306 302 300 304 312 313 317 315 314 315 318 319 320 319 316 312 313 314 314 312 311 316 317 318 317 318 319 319 325 320 320 319 318
313 313 313 313 313 313 313 314 314 314 312 313 314 313 313 312 312 313 313 314 317 316 318 310 302 305 303 311 314 313 314 318 314 319 315 321 322 316 319 323 325 322 324 317 312 310 317 316 316 313 316 320 314 308 305 303 306 310 313 314 316 316 316 317 318 319 319 318 316 312 309 311 314 316 316 316 317 317 316 317 317 319 318 316 314 316 316
313 313 313 313 313 313 313 314 314 313 313 310 307 310 315 314 312 311 314 318 317 321 321 310 304 301 301 312 304 314 314 311 314 312 310 318 327 315 318 316 320 314 318 311 317 315 316 316 312 312 315 314 315 308 302 307 310 312 313 314 316 316 316 316 316 316 316 318 318 317 317 318 319 319 318 317 317 316 317 316 315 315 315 314 314 314 316
312 313 312 313 313 314 314 313 312 312 309 311 313 317 323 315 313 314 317 319 313 310 310 310 310 304 302 304 302 311 316 309 309 309 308 317 322 316 319 312 314 307 314 320 315 312 311 310 316 309 306 311 308 302 305 310 312 312 312 314 315 316 314 313 314 316 317 317 318 318 318 318 316 314 314 315 315 314 312 312 313 311 311 312 310 308 311
312 312 313 313 313 313 313 314 312 310 309 309 314 322 318 318 317 320 321 327 322 314 310 308 307 301 303 299 299 311 319 309 319 315 316 320 316 322 319 314 307 310 320 312 309 312 308 318 312 304 310 304 302 305 308 313 314 312 313 314 315 314 314 314 315 316 317 317 318 317 318 317 315 315 315 315 316 314 314 314 312 311 311 310 311 311 312
312 313 313 313 313 313 309 310 316 312 313 321 321 319 321 323 327 326 323 321 326 327 310 307 304 304 302 301 307 316 315 303 313 311 315 312 313 316 315 313 306 314 312 311 311 308 314 321 309 304 305 302 307 310 315 315 317 314 314 316 317 317 317 317 317 316 315 316 317 315 315 313 314 315 313 313 314 315 314 312 312 309 310 309 310 311 312
313 312 311 310 311 308 309 312 315 320 320 317 320 320 318 320 314 313 316 314 319 319 313 311 303 306 312 309 300 317 311 311 312 307 310 315 311 311 315 312 311 311 301 306 309 317 316 313 309 305 307 313 320 319 319 317 320 319 320 319 317 319 318 318 317 315 312 311 311 312 313 313 313 313 313 313 313 313 313 314 314 314 313 312 311 312 313
312 312 311 312 310 309 311 319 323 320 319 321 321 314 313 314 309 306 306 309 313 308 312 307 302 305 305 304 310 317 313 313 309 309 304 314 310 307 313 304 312 310 296 304 309 318 305 307 308 306 303 310 311 315 320 320 319 320 320 320 319 319 318 318 317 315 313 311 312 313 312 310 311 311 313 314 313 314 315 313 313 313 312 312 313 313 312
311 308 309 310 309 313 322 323 319 322 320 315 318 313 305 312 302 297 311 300 298 306 310 301 306 306 307 304 305 309 316 311 305 305 308 311 317 306 309 308 312 306 296 298 305 313 304 299 304 303 302 307 309 318 318 318 317 319 319 319 319 319 319 319 318 319 319 317 318 316 317 316 316 316 313 313 313 312 313 313 314 313 313 312 313 312 311
310 310 311 310 315 317 323 324 322 322 314 310 310 308 305 298 307 308 307 301 299 302 308 306 308 304 307 308 308 304 322 324 321 321 315 309 322 315 307 302 315 303 300 298 311 310 307 303 303 300 301 316 318 316 317 317 316 318 319 320 319 318 319 318 318 319 319 318 316 316 316 317 316 316 315 315 315 314 314 314 314 314 314 313 313 313 313
312 310 311 313 315 317 320 319 316 312 311 313 301 296 299 301 309 307 307 297 298 305 305 305 302 303 303 306 307 310 316 323 322 319 312 306 314 309 306 308 309 300 296 308 313 309 305 298 296 297 307 312 318 317 316 316 317 317 318 320 319 318 318 317 317 318 319 317 317 316 317 316 317 316 316 315 314 314 314 313 313 313 313 314 314 313 312
312 313 315 313 314 315 317 303 311 309 294 294 294 291 299 293 298 298 302 307 315 309 313 314 312 318 313 312 307 311 317 322 316 313 312 308 315 312 304 302 302 293 303 314 307 303 298 294 294 303 313 315 317 317 316 317 317 317 318 320 319 318 318 317 316 316 318 318 318 318 317 317 316 317 316 316 315 314 314 315 315 313 313 313 313 313 312
315 314 311 311 309 310 311 292 308 303 295 296 293 288 296 295 298 300 298 301 307 305 311 306 309 306 303 307 308 313 314 317 319 316 313 314 309 304 302 295 298 308 313 306 302 297 299 303 303 307 315 317 317 317 317 317 317 317 318 319 319 318 318 318 318 316 317 319 319 318 318 317 316 315 316 316 315 314 313 313 314 314 314 312 311 311 312
308 307 307 304 298 304 297 289 308 298 290 295 297 297 297 295 299 301 299 313 312 309 311 312 317 310 306 312 311 317 315 310 319 310 304 308 305 307 302 298 306 308 302 299 299 300 302 301 308 313 314 314 315 316 317 317 317 316 316 317 317 317 317 317 317 317 317 317 317 317 315 315 315 314 314 314 315 315 312 311 312 312 311 310 310 310 311
305 298 297 293 290 292 295 291 295 292 301 302 300 302 301 302 303 304 310 312 311 309 311 313 311 311 307 311 306 308 313 313 305 307 309 307 301 297 306 312 311 302 301 298 295 293 298 304 309 312 314 315 315 316 317 318 318 318 316 315 315 316 317 318 317 317 316 316 316 315 315 315 314 313 313 313 313 312 311 312 312 311 309 308 308 309 309
306 309 301 298 293 296 304 293 296 301 303 305 305 306 305 306 307 307 314 313 312 313 312 315 315 312 308 305 306 312 313 312 306 308 309 302 300 307 310 303 298 298 294 294 295 299 302 307 312 314 315 316 316 316 316 317 317 317 317 317 316 317 317 318 318 317 316 316 315 315 314 313 313 312 312 310 310 310 311 311 310 310 309 308 309 309 309
295 306 307 292 291 296 295 301 306 306 307 306 307 308 308 310 308 307 314 315 314 314 313 314 311 313 310 316 310 306 309 310 304 310 311 306 308 304 294 299 298 300 300 298 298 303 306 315 314 315 316 316 316 315 316 317 317 318 318 317 316 317 317 317 317 316 316 315 314 312 312 311 311 311 310 310 310 309 309 310 309 309 309 309 308 307 307
308 299 295 295 301 302 302 305 305 301 304 306 307 307 306 307 307 309 315 320 314 314 316 315 311 313 305 308 306 306 304 311 299 297 307 305 299 293 294 291 296 294 302 304 304 310 314 315 316 316 316 316 316 316 317 318 318 318 318 317 316 317 318 317 316 316 315 313 312 312 311 312 311 311 309 309 308 308 310 308 308 308 308 307 307 307 306
298 298 304 300 301 303 305 306 303 300 303 305 305 305 306 305 307 316 320 315 316 314 313 312 316 307 306 306 295 301 300 306 305 299 301 298 299 302 299 295 298 299 303 306 309 314 316 316 316 315 315 316 317 316 316 316 318 318 318 318 318 318 317 315 314 314 313 312 312 312 312 310 308 308 308 309 307 306 308 308 308 307 307 308 307 307 308
308 302 300 308 302 301 304 299 299 300 302 303 304 305 306 306 308 309 315 314 316 312 310 306 305 305 296 295 292 290 298 310 306 301 300 300 304 301 298 298 302 308 308 312 315 318 318 318 317 316 316 317 317 317 317 317 318 318 318 318 318 317 316 314 313 312 312 312 312 314 309 309 309 307 307 308 308 307 307 308 308 308 307 308 308 308 307
296 294 299 304 307 306 306 306 307 306 306 309 307 308 308 310 313 313 318 318 314 310 305 310 308 298 292 291 300 306 308 303 300 302 299 303 307 301 301 305 308 308 311 312 313 314 317 320 321 318 317 317 318 318 318 318 318 318 317 317 316 315 314 312 311 311 311 311 310 310 310 309 309 309 308 308 306 306 305 305 307 308 309 308 308 308 307
Wind_Speed
21 21 21 21 21 22 21 21 21 22 25 9 7 6 3 4 6 11 13 9 3 2 4 5 6 7 5 3 6 4 3 5 6 8 6 6 5 4 3 8 5 3 3 4 8 9 2 3 4 6 2 7 6 5 9 8 7 10 5 8 4 6 1 4 6 5 9 10 11 5 8 4 4 3 6 4 6 3 2 2 2 3 2 4 4 4 3
20 21 21 21 21 21 21 20 19 18 18 6 7 4 4 6 7 7 13 4 3 3 4 5 4 6 2 3 2 6 4 3 4 6 7 5 5 7 2 3 3 4 3 2 3 2 1 5 4 1 2 1 6 2 3 8 3 4 2 1 6 3 3 5 3 4 6 9 8 9 3 2 2 3 3 4 5 9 8 6 3 4 1 1 7 4 4
20 21 21 21 21 21 21 21 19 16 13 10 3 3 5 6 6 9 8 5 3 4 2 5 6 7 7 7 8 7 6 1 3 4 2 1 4 5 4 3 1 5 7 3 3 4 5 2 6 2 4 2 2 6 3 5 4 4 1 1 2 1 2 3 3 3 4 5 6 7 9 7 8 6 3 4 5 2 2 7 2 1 3 6 3 3 2
20 20 20 21 21 22 22 22 21 18 14 10 3 3 3 2 4 5 3 2 2 5 5 9 5 5 7 2 0 5 10 6 6 3 4 5 8 1 2 6 5 6 4 6 4 1 2 4 2 3 2 2 3 6 6 6 4 4 5 6 3 1 3 2 0 1 3 5 6 8 8 3 5 5 1 7 7 8 12 2 2 1 3 9 3 11 6
20 20 20 20 21 22 22 22 23 22 17 9 2 3 4 3 3 4 4 10 6 4 6 7 1 3 2 2 2 8 9 6 5 4 2 5 2 6 3 6 5 4 6 8 6 11 11 9 2 2 6 8 1 4 5 7 2 4 3 3 2 1 1 4 5 5 5 3 6 12 10 8 6 9 10 11 7 13 15 12 14 6 9 3 4 17 12
19 20 21 21 21 22 22 23 24 25 23 12 3 3 2 3 2 5 5 4 5 7 2 8 4 6 5 3 3 5 8 8 7 4 2 3 6 5 2 8 4 2 2 6 5 7 10 4 8 6 4 4 6 7 8 3 4 3 3 3 4 2 2 6 8 9 11 6 7 6 8 7 7 7 6 6 18 18 17 14 19 20 4 5 4 8 12
21 20 23 21 20 21 22 23 24 27 28 13 4 1 4 5 5 6 9 5 9 10 8 11 4 7 8 1 3 7 7 6 5 5 4 4 2 4 2 4 8 4 7 6 2 3 4 6 4 3 6 4 5 3 7 5 15 2 3 4 2 1 2 5 4 8 11 10 10 9 9 6 7 7 5 11 16 16 15 15 18 15 10 13 12 14 16
20 21 21 21 20 21 21 22 23 27 31 11 3 2 3 5 6 7 9 7 8 9 9 3 4 1 3 1 5 7 4 6 3 4 2 4 5 1 6 6 6 9 3 6 3 1 3 3 2 2 4 4 1 3 2 3 5 3 4 1 1 2 2 10 5 4 7 11 10 11 16 11 9 5 15 20 16 17 15 16 15 12 13 13 12 8 9
20 20 21 20 20 20 21 21 22 26 24 5 5 5 7 5 4 4 6 9 5 7 7 5 2 2 3 3 4 6 6 5 6 2 0 6 4 6 7 5 2 5 4 3 8 9 8 5 8 7 2 4 1 1 1 1 3 3 4 3 2 3 2 4 3 4 6 8 8 10 15 13 14 13 19 15 15 12 12 10 10 11 8 7 10 8 6
21 20 20 21 19 19 19 19 20 21 20 4 5 5 7 7 6 5 3 3 5 6 5 6 4 3 3 4 7 0 8 9 3 5 3 5 1 4 5 8 5 3 2 5 5 10 6 11 9 5 5 6 1 6 4 2 2 2 3 3 3 0 1 2 2 4 4 6 9 10 12 4 10 10 13 12 10 9 10 11 12 11 6 9 7 2 2
21 19 19 20 18 19 18 18 18 19 13 8 6 5 7 7 9 7 3 4 6 6 7 7 6 1 3 7 7 5 7 8 4 2 0 6 5 2 1 4 2 2 4 7 7 4 7 4 7 6 4 2 7 6 2 3 4 0 1 1 2 3 2 1 0 1 3 6 7 6 6 6 1 2 12 10 11 11 11 8 10 11 10 7 7 6 6
21 19 19 19 18 18 18 16 15 14 11 6 4 6 6 7 7 3 3 3 7 7 5 6 7 9 9 5 3 7 3 7 4 7 5 5 3 2 3 3 4 2 3 3 1 4 0 1 7 3 6 5 8 4 2 7 2 4 4 3 1 3 3 3 1 0 2 4 1 2 4 1 4 1 8 9 14 14 13 11 9 10 11 13 13 11 12
20 19 18 18 18 17 17 16 15 14 11 7 4 4 6 8 5 3 4 4 5 7 6 8 11 14 18 8 4 4 1 3 1 0 4 5 7 3 2 2 0 6 5 4 3 1 3 3 4 3 4 6 4 5 3 1 7 5 5 2 4 2 2 3 2 1 0 0 1 2 2 2 7 11 10 8 6 5 10 11 11 10 10 11 12 10 9
19 18 18 18 17 16 15 15 15 14 13 10 6 5 7 6 5 4 3 4 5 6 9 10 10 11 15 8 2 1 7 4 4 5 4 5 7 6 5 5 5 0 2 1 1 2 2 1 2 1 2 1 2 2 9 9 8 6 3 3 5 4 2 0 2 0 1 1 0 4 3 1 11 5 6 6 5 4 8 7 8 9 9 11 9 9 8
17 17 17 17 18 16 15 16 15 15 13 13 6 6 7 7 5 2 3 2 6 6 6 5 5 11 15 14 8 4 5 0 3 4 3 5 5 1 5 8 2 2 1 2 2 1 2 1 1 1 2 1 0 1 2 2 2 7 7 3 4 4 1 0 1 2 2 2 1 2 1 1 2 3 7 7 9 7 7 6 4 11 10 8 9 9 7
16 16 16 17 17 17 16 16 15 15 13 13 6 6 7 7 7 3 2 2 3 5 3 7 9 11 10 13 11 5 2 1 4 2 4 3 7 3 4 1 2 3 2 2 1 1 2 1 2 0 2 2 0 0 0 2 2 5 5 2 2 3 6 3 3 2 5 2 0 1 2 1 2 5 8 7 8 7 4 5 6 5 8 8 9 9 5
15 15 15 16 17 16 15 16 15 14 12 11 8 7 6 3 3 4 3 3 3 8 12 16 13 11 8 8 5 5 2 2 1 1 0 2 3 7 4 1 3 2 3 2 0 0 2 2 2 2 2 1 2 1 0 1 0 2 6 8 3 1 2 2 1 2 2 0 1 2 0 2 3 7 7 8 5 6 2 2 1 3 5 5 5 7 4
14 14 15 15 15 16 16 16 16 15 12 10 7 7 7 8 5 5 3 3 4 6 6 9 11 7 5 7 4 4 3 4 1 0 1 1 3 3 2 4 3 4 1 1 2 3 2 2 1 1 1 1 1 3 1 0 1 2 1 0 2 2 1 2 2 2 3 3 3 1 2 2 6 6 6 6 4 1 5 3 1 0 3 3 4 4 4
13 13 14 14 14 15 15 16 16 16 13 10 9 7 6 4 5 5 4 4 3 7 8 14 14 13 11 14 3 4 5 2 4 1 1 2 2 6 4 4 2 1 1 0 0 1 1 2 0 1 2 1 1 0 2 1 1 3 1 2 3 2 2 3 5 3 4 3 5 3 2 0 5 1 10 7 2 4 4 2 1 2 4 3 4 5 3
12 13 13 13 13 13 13 14 16 15 14 9 8 6 10 10 8 5 2 3 2 8 11 10 10 13 11 12 8 1 2 4 2 1 0 2 1 5 2 2 0 1 2 0 1 1 1 1 1 1 3 0 1 0 0 1 1 0 0 1 0 1 1 1 1 2 1 4 4 2 2 3 8 2 6 9 4 2 0 2 5 4 3 4 4 4 4
12 12 13 13 13 13 12 14 14 15 14 8 7 7 8 2 4 7 4 5 4 7 8 4 6 11 13 15 17 15 9 3 4 3 2 2 0 2 1 1 1 1 0 0 1 1 1 1 1 0 1 1 1 2 0 0 1 3 5 2 2 2 1 1 0 0 1 3 2 1 2 3 6 7 5 2 4 3 4 4 6 4 4 4 4 5 4
11 12 13 13 12 12 12 12 14 14 12 7 9 5 6 5 8 6 7 5 4 6 6 12 14 13 15 15 15 9 9 5 6 5 2 4 1 1 1 2 2 1 0 1 1 1 1 0 1 1 2 1 3 1 2 3 1 0 1 1 1 4 1 1 2 2 2 2 2 3 4 4 6 6 6 6 6 6 6 6 5 5 4 4 4 3 4
11 12 13 13 12 12 11 12 13 13 11 8 6 4 7 9 9 8 7 4 4 6 9 11 11 12 11 14 11 6 1 2 5 3 5 4 3 3 2 2 2 2 1 2 2 1 2 3 0 2 1 0 2 1 3 1 0 0 1 1 2 1 0 2 3 4 5 6 5 6 6 6 7 7 6 6 6 7 6 6 6 5 5 4 4 3 3
11 12 12 13 12 12 11 11 12 12 10 6 5 6 7 6 8 8 5 3 3 5 6 6 6 4 5 7 6 4 4 4 1 3 3 2 1 4 3 3 1 1 2 1 1 2 1 2 1 1 1 2 2 2 0 1 0 1 1 1 2 1 1 1 4 4 3 3 4 5 6 7 8 8 6 6 6 5 4 5 5 5 4 4 4 4 4
11 11 12 12 12 11 11 10 11 12 9 8 7 7 7 7 4 3 4 3 3 3 4 6 6 9 11 10 9 7 6 2 4 4 2 4 1 1 1 2 1 3 2 2 1 2 1 1 2 1 0 0 2 3 2 1 1 0 0 1 1 0 1 2 2 4 5 4 6 10 9 8 7 5 6 6 5 5 4 4 4 4 5 5 5 4 5
10 11 12 12 12 11 10 10 11 11 10 7 7 5 5 6 5 5 5 5 5 4 4 4 5 7 7 10 12 13 7 11 5 7 4 8 7 3 2 2 2 4 3 2 3 2 0 1 2 2 1 1 1 1 3 2 2 1 1 2 2 3 1 2 3 3 3 5 6 7 6 8 8 6 5 5 5 6 6 7 7 7 6 4 3 4 4
9 11 12 12 11 10 10 10 11 11 10 8 7 6 7 7 6 5 3 3 4 2 4 4 5 9 12 16 14 13 13 8 8 4 6 9 7 2 3 2 0 1 1 2 0 2 0 1 1 2 1 1 2 0 2 1 1 0 1 1 1 3 0 2 7 7 4 2 2 5 6 3 4 5 5 5 5 6 7 7 7 6 6 6 5 3 2
9 10 11 11 11 11 10 11 11 12 10 9 8 8 7 7 5 6 6 6 3 3 4 6 7 10 14 15 16 11 4 2 5 8 6 6 8 8 5 7 3 1 1 0 2 2 2 2 3 3 1 1 0 2 1 2 2 1 4 2 2 3 0 1 3 3 3 3 3 5 8 6 4 5 6 6 5 6 6 5 4 5 5 5 5 6 6
10 11 10 10 9 11 10 11 11 12 10 8 7 8 8 10 9 7 7 5 4 4 3 6 6 6 4 6 10 6 5 3 3 6 3 7 8 3 1 3 4 2 2 2 3 2 2 3 1 1 1 2 1 1 3 3 3 2 1 2 4 1 4 6 5 6 4 5 7 5 4 5 4 6 7 5 5 4 5 5 5 4 5 5 6 4 5
11 11 10 9 10 11 11 11 11 11 8 6 4 3 3 1 2 3 1 2 3 4 3 3 4 3 7 8 7 6 9 6 6 9 11 7 4 3 3 5 3 2 1 2 3 3 2 3 2 1 1 2 1 0 1 0 2 2 0 4 4 4 4 5 4 5 4 4 5 4 6 7 5 5 5 5 5 5 6 6 5 5 4 4 5 4 5
11 11 10 10 10 11 11 11 10 10 7 5 3 2 2 2 2 3 7 6 5 2 2 2 5 6 7 4 6 9 11 9 7 6 7 6 2 2 2 4 2 2 3 2 0 1 1 2 2 1 1 2 2 0 0 1 2 2 4 4 4 3 5 4 5 6 6 5 5 4 4 5 6 6 6 7 8 7 4 4 4 4 4 5 5 4 5
11 10 10 10 11 11 12 11 11 8 5 4 4 2 1 1 1 6 8 6 6 1 1 2 2 2 2 4 6 5 7 5 8 4 2 1 1 3 1 3 1 4 1 0 1 1 2 1 1 3 2 1 1 0 0 1 1 3 5 4 3 6 5 5 4 4 4 4 5 5 4 5 5 5 5 6 7 8 7 4 4 4 7 5 4 6 7
10 10 9 10 12 12 13 12 11 8 6 8 14 19 22 22 22 19 5 3 2 2 2 2 2 2 2 1 3 8 8 1 3 2 2 2 2 3 1 2 2 2 3 2 0 1 0 0 2 3 1 0 1 0 0 1 1 6 5 5 5 6 5 3 4 4 5 4 3 1 3 5 5 8 7 5 6 6 5 5 7 6 7 6 7 6 6
10 10 10 12 12 13 13 12 11 11 10 6 6 6 7 17 16 14 4 2 1 3 1 2 2 3 4 3 7 2 8 3 2 3 2 1 2 2 1 2 2 1 1 1 1 0 2 2 1 2 1 1 1 1 1 1 7 7 6 5 5 5 5 4 5 5 4 4 5 7 6 7 6 5 6 4 4 3 3 1 5 7 7 5 6 6 6
9 9 10 12 13 13 14 12 6 4 5 6 5 6 3 4 9 12 10 3 2 2 2 2 1 2 2 2 4 3 3 4 3 4 3 1 2 2 2 1 2 1 1 1 1 2 2 3 4 4 3 3 3 2 2 3 5 7 7 6 5 5 6 4 4 5 4 5 5 5 6 5 6 4 4 3 4 4 3 2 1 3 3 6 4 4 3
10 11 12 12 12 11 8 6 5 5 4 5 4 3 9 9 11 7 6 1 1 1 1 1 2 4 2 3 2 1 1 4 1 3 2 1 1 1 1 2 2 2 1 2 1 2 3 0 1 2 4 3 4 3 5 4 5 7 7 6 7 7 5 5 6 6 6 6 6 5 5 4 5 4 4 4 3 4 3 2 3 2 3 7 6 4 3
10 11 12 12 7 4 5 5 4 7 4 0 4 7 4 3 4 3 3 2 2 1 2 2 3 3 3 4 2 2 1 4 2 2 1 2 1 2 1 1 3 1 2 2 2 2 2 1 3 3 3 3 3 8 7 5 5 7 6 6 8 6 6 5 8 8 8 7 7 5 4 5 3 4 4 4 3 3 2 1 1 5 3 5 4 3 3
10 9 5 5 4 4 4 6 4 7 7 7 5 3 0 2 2 3 3 3 3 4 3 2 5 3 3 2 3 3 2 1 2 2 2 1 3 0 1 1 2 1 3 2 3 2 1 0 1 2 2 2 0 3 5 6 5 6 5 7 7 6 6 5 7 9 8 7 5 5 4 4 4 5 5 5 4 5 4 2 0 2 4 4 4 4 5
6 4 4 4 3 3 3 2 5 7 7 2 2 2 2 2 2 2 3 3 2 4 3 4 6 5 5 5 4 2 1 1 1 1 2 4 1 2 3 2 1 1 1 2 4 2 2 2 2 3 5 3 4 4 5 6 5 6 6 7 7 6 6 5 6 6 7 7 6 6 6 5 4 6 4 4 4 3 4 4 1 2 4 4 3 3 2
3 4 3 3 4 3 6 1 5 2 2 2 2 2 2 2 3 2 2 2 2 3 3 5 5 5 7 7 4 3 3 3 4 3 1 1 0 3 3 1 1 1 2 4 2 3 2 3 3 3 6 5 7 4 8 9 8 6 6 7 8 7 6 6 5 2 4 6 7 8 5 5 3 4 7 5 5 4 3 3 4 4 4 4 3 2 1
4 4 4 3 4 3 3 7 5 2 2 2 2 2 1 1 2 2 1 3 3 2 3 3 3 5 6 6 6 5 0 2 2 1 2 3 1 2 3 2 2 1 3 3 1 2 1 2 2 5 5 3 3 7 9 9 8 6 6 6 7 7 7 6 5 3 3 4 6 6 5 5 4 4 4 3 4 4 3 3 3 2 4 4 3 3 3
1 2 4 6 7 6 5 3 3 3 2 1 2 2 3 2 2 2 2 3 4 2 4 5 6 7 6 8 6 3 2 2 2 2 2 3 0 1 2 1 0 2 2 2 2 1 2 3 3 4 5 5 5 6 9 8 8 8 7 7 8 8 8 7 5 4 3 6 6 5 4 5 5 4 4 4 4 4 4 3 4 4 4 4 4 3 3
10 7 5 4 4 2 2 0 3 2 1 1 1 1 2 2 4 4 3 2 2 2 1 2 2 1 3 5 5 5 2 2 2 1 1 2 1 1 3 1 1 2 3 2 2 0 4 3 3 4 3 5 9 9 8 8 8 8 8 7 7 7 8 7 7 5 5 7 7 6 4 5 5 4 4 4 4 3 3 2 3 3 4 4 4 3 2
4 4 4 3 3 3 2 0 2 2 1 1 3 3 4 6 5 4 4 3 3 3 3 2 1 3 4 4 2 2 2 1 1 2 1 2 2 2 2 2 4 1 5 3 3 6 5 2 6 4 6 6 8 8 8 8 8 8 7 8 8 7 7 6 6 6 6 7 7 6 5 5 5 4 3 3 3 2 3 3 3 3 3 3 1 0 2
1 2 2 0 1 1 1 1 2 1 3 4 3 6 5 6 5 5 6 1 1 1 2 3 2 1 4 2 3 1 1 2 1 2 3 2 2 2 2 3 2 2 3 4 4 4 4 5 4 5 7 8 9 10 9 10 10 10 9 9 8 8 7 8 8 7 6 6 6 6 5 5 5 4 4 4 3 3 4 4 4 4 4 4 3 3 3
3 2 1 1 2 2 1 1 1 1 3 3 5 5 6 6 5 4 1 2 2 4 1 2 3 4 6 5 2 2 2 2 3 2 3 2 2 4 3 1 2 0 1 3 4 5 5 4 6 10 11 11 11 9 9 9 9 9 10 10 9 7 7 10 9 8 7 6 6 5 6 5 5 5 4 4 5 4 4 4 4 4 4 3 2 2 3
2 3 1 0 1 1 2 2 5 4 3 3 5 5 6 6 5 6 2 3 7 4 2 2 3 2 2 5 3 2 2 1 2 2 2 2 3 0 1 4 4 3 3 4 6 5 4 3 5 8 9 9 9 9 9 9 10 10 10 8 8 7 8 10 9 9 7 7 6 5 4 5 5 5 5 5 4 4 4 4 4 4 3 2 3 3 3
1 1 0 1 3 2 5 6 4 5 7 6 5 5 5 4 5 4 2 2 8 7 4 2 3 3 4 1 1 1 0 2 2 3 2 1 1 2 1 2 3 3 4 4 5 4 3 1 6 8 8 9 10 10 9 9 9 10 10 10 9 9 9 9 8 8 7 7 6 6 6 6 6 5 4 4 4 4 4 3 3 4 5 4 4 4 3
2 1 1 1 3 3 4 4 6 9 7 6 6 6 6 5 6 5 1 1 1 0 1 1 3 1 3 3 3 1 1 1 1 1 1 2 3 3 3 3 5 5 4 4 4 2 1 4 6 10 10 10 8 9 9 9 9 10 10 10 8 9 8 9 8 8 8 7 6 6 6 5 5 5 5 4 4 3 4 5 4 3 3 4 3 2 2
1 1 2 2 3 5 5 5 5 8 4 4 3 5 5 7 3 2 2 3 3 4 6 3 2 4 2 2 1 2 1 3 1 1 2 5 4 2 3 5 3 3 1 4 4 2 3 5 7 8 9 9 9 9 9 9 8 8 8 8 7 7 7 9 9 9 8 6 6 6 6 6 5 4 4 4 5 4 3 4 4 3 2 2 2 3 3
2 3 3 4 6 4 4 3 3 4 4 4 5 6 6 5 3 3 5 4 4 5 3 2 2 2 1 1 2 1 2 1 2 4 3 4 3 3 4 4 1 3 1 2 1 3 2 4 6 7 7 7 8 9 8 8 8 8 8 8 8 8 7 9 10 9 7 7 7 8 6 4 5 6 5 4 3 3 3 3 3 3 3 3 3 3 2
1 2 3 4 7 8 8 6 5 5 5 4 6 7 8 3 2 4 5 4 4 2 2 2 2 2 1 3 3 1 4 3 3 3 5 3 2 4 4 1 5 4 4 1 3 4 4 4 2 4 5 7 7 7 7 8 8 8 8 9 9 8 9 9 8 8 8 7 7 5 5 6 6 5 4 4 4 2 2 4 3 3 3 4 4 3 3
Wind_Direction
341 342 342 342 342 343 346 349 353 358 353 8 356 311 267 243 258 278 280 272 249 272 247 277 283 259 173 243 224 143 241 352 5 328 22 340 24 287 318 41 3 24 347 34 16 349 55 89 80 314 293 54 30 50 319 354 20 20 25 340 3 313 332 358 313 349 311 309 303 278 176 266 304 206 203 193 232 243 226 220 279 318 322 34 65 65 242
341 341 342 342 342 342 345 347 355 1 14 352 307 283 312 314 294 300 301 275 211 245 270 276 276 296 232 189 108 122 354 303 347 314 21 344 342 332 70 69 145 239 207 348 66 322 346 40 103 252 33 34 332 16 340 331 56 39 353 4 332 345 344 1 351 344 332 329 351 348 50 336 335 286 273 221 211 205 250 290 64 359 345 149 124 149 241
341 341 342 343 342 343 343 345 348 1 0 352 312 327 319 291 269 240 243 223 176 220 254 283 295 345 348 24 304 134 103 48 249 350 309 141 311 317 59 321 337 299 334 320 64 330 65 311 94 26 67 5 264 243 269 327 55 40 36 334 345 49 307 40 30 12 2 355 333 320 318 308 308 285 327 284 210 329 146 267 314 271 285 48 86 68 45
341 341 343 343 344 343 343 342 343 347 358 343 259 264 282 266 305 318 298 231 190 216 239 256 248 33 330 187 33 271 145 170 88 313 10 42 305 303 340 340 352 338 122 344 58 321 155 82 36 5 255 177 22 13 335 353 18 41 349 328 329 13 358 332 21 189 217 223 234 240 238 286 297 313 18 321 1 359 338 315 351 305 86 81 67 133 112
341 342 343 344 344 344 343 342 340 341 345 357 252 269 224 311 261 317 344 325 245 235 194 261 280 143 48 306 2 317 336 351 130 55 275 163 325 3 340 349 318 351 350 18 343 15 356 348 231 16 14 3 305 230 223 247 79 347 329 236 294 53 331 272 269 244 229 239 288 288 290 292 304 328 345 343 6 42 61 47 3 299 91 41 140 139 129
342 343 345 345 344 344 345 344 342 338 337 344 233 304 230 269 292 315 2 324 295 309 3 301 354 106 114 22 354 285 292 261 127 197 36 34 74 311 126 298 217 314 71 77 22 8 336 354 14 4 38 349 354 351 317 295 139 243 336 75 92 59 338 324 328 325 324 287 256 285 313 301 296 309 289 37 50 49 42 22 28 28 60 133 141 100 113
341 343 344 346 345 344 346 346 345 341 333 335 202 316 306 313 335 331 356 334 318 315 344 330 5 349 71 108 312 292 287 322 51 10 5 18 225 69 15 299 36 64 30 73 55 18 30 357 356 13 335 346 7 341 313 8 354 347 83 54 54 55 294 294 322 312 308 309 309 273 253 296 290 285 9 35 54 56 48 42 41 44 70 41 43 74 85
340 342 344 346 346 345 347 349 349 345 338 330 195 231 322 14 342 333 338 322 304 330 315 257 69 18 126 206 235 295 311 356 40 183 50 343 45 129 289 334 74 39 29 92 25 347 136 183 359 294 255 307 95 333 260 348 313 343 334 78 184 95 302 347 327 341 305 315 311 5 0 339 329 34 36 36 42 51 46 45 48 61 43 51 39 2 62
340 340 343 346 346 346 347 352 355 350 345 4 357 355 27 322 346 327 322 325 320 326 304 316 47 248 171 243 156 215 231 242 22 84 187 354 338 342 343 4 322 132 7 104 180 195 133 195 231 240 178 247 120 117 307 73 291 338 353 324 30 6 303 342 345 4 316 300 4 16 358 39 31 31 43 35 30 39 33 46 39 60 77 73 72 30 15
341 339 341 343 346 346 347 354 358 358 343 15 332 357 342 333 335 341 331 296 294 296 311 301 302 295 69 69 103 332 3 51 90 312 141 238 300 358 343 355 19 6 105 232 15 12 16 354 338 9 8 320 157 183 214 250 329 40 347 350 302 131 56 352 10 15 303 317 26 19 333 325 42 30 26 35 66 69 69 57 49 55 85 72 66 107 33
341 340 339 342 344 345 348 353 360 7 7 27 354 319 333 358 340 334 325 310 293 290 306 273 255 142 278 223 250 212 244 81 40 24 6 289 146 114 115 286 9 43 49 21 24 4 318 326 325 330 319 246 246 265 318 278 254 9 342 35 302 358 68 269 120 205 282 328 36 9 15 47 2 328 53 45 74 66 62 47 38 43 57 75 81 79 65
340 340 338 341 343 343 346 350 357 10 19 357 292 275 277 333 322 292 312 308 292 297 274 302 304 323 301 300 196 310 78 51 327 159 270 359 118 336 332 293 115 287 28 298 293 301 227 242 251 264 273 285 322 355 311 313 326 172 177 178 3 47 38 288 324 57 283 331 99 84 66 183 269 334 70 73 91 80 76 63 50 42 60 73 75 74 75
338 338 338 340 342 341 343 347 353 358 6 351 331 281 302 328 298 316 302 283 278 310 312 304 319 305 302 289 109 197 47 65 10 55 320 319 1 285 233 37 181 61 327 343 37 73 297 321 307 293 310 322 319 329 313 321 330 319 290 91 104 351 22 5 324 225 303 274 78 86 221 237 49 35 37 47 52 72 79 58 44 51 53 74 82 84 89
336 337 337 340 339 338 342 347 348 349 356 355 329 294 289 308 316 350 345 328 297 298 322 311 298 298 313 311 200 61 83 70 61 29 299 260 260 278 119 218 56 47 300 352 104 57 349 292 271 156 271 342 307 27 346 330 298 314 281 86 57 60 36 46 304 257 225 303 56 145 228 7 12 11 1 348 58 19 89 82 28 21 54 65 80 91 89
334 335 337 337 338 338 345 346 345 347 349 348 300 296 301 304 309 351 307 277 284 297 299 293 295 312 319 308 278 127 113 348 128 190 221 341 292 53 31 32 35 1 14 79 336 105 193 262 269 278 58 67 38 279 299 314 352 297 302 286 162 150 157 162 72 283 215 272 20 36 53 99 278 319 317 343 28 30 107 94 56 12 45 63 77 72 83
332 333 334 336 337 342 346 344 345 344 351 347 325 315 285 279 298 301 303 300 314 300 220 255 296 315 314 301 275 148 117 128 198 152 170 187 268 323 137 39 46 88 276 182 111 9 311 262 270 105 164 175 148 107 261 321 309 266 174 286 79 201 155 149 131 290 337 335 27 115 109 58 267 309 322 350 27 358 31 84 37 350 31 37 61 77 70
329 329 331 334 338 341 344 345 343 345 347 6 338 321 290 328 338 317 327 290 253 260 290 301 305 300 305 311 47 78 127 188 43 128 125 219 196 259 118 198 110 238 229 351 84 260 263 259 254 236 102 81 107 223 105 212 273 318 21 351 352 351 155 93 54 299 267 324 69 112 97 99 341 335 338 9 359 6 15 65 298 333 43 49 58 57 75
324 327 328 332 336 340 344 344 343 343 346 353 338 304 281 297 274 280 274 268 290 282 259 279 293 291 312 316 338 331 134 89 60 106 175 175 305 323 178 169 172 208 15 197 152 181 245 268 222 58 65 255 106 77 159 12 330 301 33 360 312 325 315 147 221 221 252 209 78 58 57 12 338 322 351 341 330 10 65 150 111 100 86 55 54 75 62
317 323 325 328 331 336 340 341 340 339 345 355 333 296 250 261 316 330 280 270 263 263 297 324 312 304 329 310 309 1 328 46 122 89 141 84 242 250 293 67 60 338 35 244 66 252 251 261 47 101 136 294 354 181 118 72 246 350 49 12 339 333 65 331 14 20 34 331 101 113 149 300 310 315 23 345 19 65 116 212 227 69 65 55 69 84 87
312 318 323 324 325 330 334 335 335 336 341 3 352 304 280 289 277 225 260 294 295 284 291 284 290 327 335 320 326 321 327 311 111 154 60 289 294 318 83 323 351 86 209 97 239 246 235 45 327 279 48 130 214 120 55 170 65 93 61 182 133 307 22 18 23 314 50 47 67 47 21 337 348 339 30 3 75 176 220 121 83 85 76 65 56 72 88
310 316 320 323 323 325 329 330 330 332 340 358 351 321 314 296 350 334 303 301 283 305 293 292 328 323 317 312 306 309 246 52 13 28 296 267 160 58 328 244 179 156 49 129 298 239 119 174 134 322 197 163 225 62 328 319 51 12 76 15 93 289 63 12 43 278 74 54 72 118 125 51 17 54 90 43 84 150 92 86 84 52 59 67 53 39 71
306 312 316 319 320 322 324 326 329 332 335 348 335 294 272 298 335 327 331 320 264 243 266 306 301 287 289 289 289 331 7 122 108 117 25 360 354 164 3 304 293 311 158 205 263 314 95 101 138 63 52 342 21 44 7 38 144 252 82 70 41 292 139 170 133 319 79 140 137 155 130 79 46 57 78 73 54 69 91 88 94 111 89 77 74 68 76
301 308 315 319 319 320 321 322 328 329 331 340 338 314 295 314 315 333 327 302 252 253 267 272 276 276 266 269 279 332 318 354 66 12 84 84 350 283 219 158 283 334 359 62 104 249 353 27 72 146 116 168 148 116 38 108 213 145 334 289 151 249 91 123 80 67 92 98 126 122 102 97 78 60 62 70 70 63 71 93 100 81 83 84 104 96 73
299 307 315 319 319 319 318 320 322 325 325 332 327 305 297 292 299 314 317 253 251 294 287 240 240 272 277 274 253 206 277 303 67 85 99 99 106 320 324 44 12 350 13 325 112 92 306 333 256 121 153 175 107 42 49 343 338 337 120 154 139 29 32 105 100 146 97 100 162 122 126 127 120 109 93 82 77 70 66 71 84 108 116 120 118 125 127
295 306 312 316 319 317 316 317 318 320 323 317 314 296 281 274 259 343 350 335 340 345 303 319 284 269 272 285 298 283 222 244 215 177 164 191 158 213 330 8 67 111 116 315 30 358 13 332 335 327 242 118 103 166 151 117 310 246 165 184 101 13 2 75 132 132 121 145 110 91 79 71 67 77 89 77 76 91 77 77 81 106 121 116 125 124 101
294 303 307 309 316 316 313 312 318 317 313 313 311 300 296 277 310 307 260 247 254 232 268 288 291 298 272 257 262 267 240 197 180 126 226 258 206 190 112 45 13 35 31 338 43 315 246 245 249 266 336 275 87 164 185 155 172 145 169 201 173 164 115 95 106 100 81 92 104 100 87 96 104 93 76 89 97 82 67 61 57 47 51 98 98 61 93
293 298 302 308 314 314 312 312 316 319 315 304 300 288 273 276 266 252 258 312 331 250 203 246 294 316 347 319 305 270 239 196 138 187 200 215 274 339 111 140 299 16 28 330 181 295 219 267 20 284 251 172 172 209 124 60 144 170 117 146 127 81 81 174 115 124 151 161 158 125 124 122 92 88 100 92 75 86 88 77 61 51 55 55 89 111 94
291 294 300 306 311 311 310 310 313 318 314 308 293 273 255 251 241 218 235 237 260 303 332 307 310 311 316 288 268 236 260 155 141 186 170 218 199 229 199 164 145 183 154 88 300 213 281 270 222 221 133 60 38 240 120 125 74 28 35 9 21 116 224 82 104 128 173 173 144 100 114 113 128 124 99 82 71 74 79 83 87 77 59 61 77 71 60
286 290 294 301 302 307 309 310 312 316 319 314 292 281 257 230 231 228 239 251 257 282 283 277 280 274 263 292 322 322 267 158 177 276 270 233 184 183 299 124 135 166 236 198 236 252 209 235 268 21 106 222 96 358 137 184 148 126 227 59 69 79 92 105 124 101 122 144 133 136 119 133 142 117 105 108 108 99 99 93 99 96 84 75 61 63 94
286 288 295 297 298 303 306 308 312 316 322 314 301 269 283 102 133 151 307 310 295 245 257 307 304 286 330 307 287 280 271 247 216 201 228 254 182 169 160 124 145 207 240 212 182 228 219 268 88 118 81 31 74 33 355 329 89 149 224 90 89 76 71 93 121 135 159 151 136 130 132 136 140 119 114 104 88 93 84 71 57 63 72 74 71 63 58
286 289 291 293 294 299 302 301 307 312 311 299 308 246 186 187 158 122 30 8 341 314 280 250 264 313 301 266 282 287 269 218 231 228 216 236 160 151 142 119 131 171 245 270 11 271 29 256 126 56 74 38 100 217 157 354 118 163 180 149 143 130 110 101 89 110 120 107 112 104 113 128 122 111 108 112 112 110 102 93 81 75 77 66 67 66 69
285 287 287 290 294 298 298 296 296 305 290 279 231 252 32 11 346 310 329 346 333 341 206 280 274 215 255 282 280 285 279 245 236 204 238 266 160 133 106 120 264 168 192 46 292 16 213 268 51 136 122 256 20 145 273 252 235 164 151 134 133 115 116 111 120 105 100 104 100 120 146 130 149 152 145 142 134 126 127 131 129 102 92 95 85 78 74
285 284 285 289 296 298 294 291 287 281 272 284 298 291 277 268 265 265 282 289 256 253 272 254 242 303 265 263 263 242 258 258 265 161 253 138 269 132 140 112 81 46 44 45 48 244 293 273 154 93 276 263 104 164 81 214 140 148 146 132 130 126 120 129 108 108 104 109 105 134 178 146 113 110 123 122 109 118 128 163 163 153 133 120 112 112 104
290 292 294 294 294 293 290 287 287 287 275 271 277 229 234 230 237 233 158 202 253 254 256 242 247 236 265 319 301 207 191 229 221 128 266 91 103 139 158 151 105 126 115 184 163 273 294 308 142 107 50 262 106 77 221 171 148 147 132 142 126 121 126 119 106 106 108 85 86 86 84 86 93 101 104 115 131 123 131 157 148 148 161 157 135 139 137
298 293 296 294 291 288 286 282 287 255 261 252 243 250 314 188 166 147 159 190 167 193 189 238 286 296 263 266 251 294 198 244 210 154 183 302 104 147 116 118 27 177 269 10 310 219 231 204 132 106 194 131 120 187 216 182 166 142 152 142 144 129 122 121 130 126 114 103 86 101 109 104 102 117 126 148 141 156 136 229 258 88 95 95 101 77 83
298 301 298 294 290 283 282 244 213 243 230 238 239 106 108 111 114 146 172 206 288 330 286 238 183 224 270 262 234 268 81 265 121 135 147 79 94 62 100 128 156 219 117 139 235 137 237 80 68 239 146 149 200 180 198 196 158 154 161 160 157 144 158 159 148 137 127 124 122 119 133 142 144 163 150 138 95 75 56 6 108 87 108 125 127 142 142
304 303 300 290 279 240 239 243 180 204 241 93 115 112 88 109 120 125 158 237 196 242 246 320 293 255 213 266 296 225 153 272 130 165 84 120 120 327 299 124 220 129 228 207 238 215 256 42 170 232 199 209 198 184 181 170 168 162 171 159 151 147 149 153 146 136 130 136 139 152 161 158 161 131 122 125 125 115 135 231 229 160 152 135 153 158 144
313 315 293 273 243 254 241 198 211 161 109 93 130 127 188 242 201 179 166 225 179 167 217 200 247 264 305 287 249 327 149 244 285 205 121 65 104 305 34 316 219 212 229 215 224 231 152 47 217 234 249 212 188 141 157 158 151 146 139 139 149 145 144 137 142 140 147 148 155 153 155 173 154 142 148 157 158 161 181 199 265 116 117 102 93 89 79
285 265 242 246 262 256 337 23 359 130 150 151 216 257 176 191 216 219 191 181 163 208 186 211 227 222 236 256 265 301 116 137 338 317 178 321 28 4 337 271 2 256 211 209 267 328 237 200 194 213 251 219 218 189 145 129 124 132 133 140 141 139 134 139 148 162 165 162 161 166 167 184 171 157 151 163 155 176 174 166 163 106 96 98 101 108 97
231 240 234 216 227 334 334 16 88 300 189 223 179 273 239 181 207 230 156 192 192 217 174 224 206 215 213 229 253 256 179 152 168 226 101 288 244 145 257 275 256 299 246 229 201 145 241 212 182 203 239 205 218 180 154 147 141 144 135 140 139 139 134 133 135 117 134 153 168 167 162 166 173 160 167 163 155 172 147 135 126 112 107 112 110 103 136
211 244 254 298 15 336 288 305 285 239 237 213 201 209 257 238 212 269 224 221 207 218 182 231 163 200 208 226 225 250 19 87 80 62 116 119 297 102 161 172 281 70 309 259 318 178 209 252 204 206 223 190 179 165 155 147 146 141 140 135 134 134 127 123 122 124 124 104 98 131 157 150 132 94 99 124 140 154 149 134 122 122 133 134 138 130 92
23 273 307 301 274 268 284 227 232 217 219 253 246 209 196 256 197 202 234 249 199 212 191 186 220 206 204 198 211 201 200 128 90 90 107 119 138 173 107 65 10 141 229 193 144 346 269 232 221 234 204 190 154 158 149 147 146 141 141 130 133 134 131 135 138 154 138 116 107 95 84 94 89 86 75 74 68 72 71 67 74 76 71 67 61 60 71
296 264 260 271 270 209 101 39 222 227 172 169 106 306 231 220 208 227 200 203 287 252 302 205 232 180 213 171 202 191 201 165 136 134 128 134 121 105 102 84 107 219 221 170 119 222 229 227 229 228 177 176 160 162 160 149 146 141 139 132 137 138 138 142 152 169 139 126 122 120 111 99 100 99 85 74 73 70 67 74 76 76 71 63 68 64 51
268 283 249 205 253 211 131 260 213 191 255 190 156 205 202 221 221 193 236 198 174 229 170 173 214 211 230 167 203 107 65 32 151 134 88 125 146 147 135 179 214 317 25 353 243 220 214 212 231 210 172 153 151 148 148 143 144 139 136 139 141 140 144 155 144 132 115 111 112 116 111 113 115 109 119 120 120 123 113 96 90 85 86 84 77 70 68
248 182 262 244 230 283 69 303 280 207 211 203 219 233 212 226 213 217 234 273 191 220 308 319 28 225 274 183 167 104 154 151 106 225 160 158 166 162 152 208 208 182 196 218 229 239 220 228 177 150 157 154 157 157 155 152 150 150 148 144 149 157 159 145 135 127 123 127 131 130 132 134 136 138 138 132 122 98 98 91 72 66 61 71 64 42 38
190 186 159 141 289 294 192 246 153 218 244 215 220 213 244 256 271 267 306 317 55 46 99 160 330 360 298 282 222 144 167 134 135 204 158 168 191 199 192 206 100 72 241 231 239 235 232 230 164 172 170 167 162 157 151 148 146 141 144 153 160 160 144 136 137 135 138 139 141 144 151 152 144 132 125 103 94 94 87 82 81 82 79 60 48 44 41
312 265 226 260 287 228 204 235 213 209 234 221 230 242 243 259 270 280 237 68 43 341 288 151 127 261 292 282 253 134 185 115 193 148 156 172 192 279 155 201 208 202 206 223 233 244 236 235 155 173 163 157 150 150 147 147 148 149 152 150 154 150 142 138 144 144 150 150 158 150 132 119 110 105 97 98 101 97 88 83 82 89 88 79 65 54 40
217 251 181 179 220 191 212 230 258 264 249 260 256 245 249 254 264 261 19 113 161 193 209 231 113 207 223 189 235 261 160 180 167 350 282 138 141 83 32 283 243 215 213 234 228 217 236 128 151 161 157 154 150 147 147 146 150 149 151 153 158 153 150 145 145 144 149 139 129 117 113 111 106 104 110 114 97 93 102 92 72 63 62 57 54 41 38
300 298 225 230 232 246 243 218 222 246 254 263 278 286 282 256 239 247 168 320 353 358 329 101 143 167 86 307 311 322 174 293 210 188 204 213 183 193 168 214 205 229 220 223 266 258 148 148 154 145 145 146 150 150 150 150 153 155 155 156 160 153 150 143 141 129 118 115 116 116 113 111 107 106 97 92 94 69 76 94 101 97 85 74 57 48 21
234 281 262 255 287 262 266 277 278 275 279 294 308 288 289 281 265 222 136 140 158 118 72 22 357 87 72 10 36 327 354 296 151 107 269 224 221 207 211 237 216 215 91 30 333 316 128 135 130 139 145 146 147 149 150 152 153 150 151 150 146 143 142 132 123 121 119 120 118 114 111 106 114 126 131 123 112 126 104 84 83 107 112 102 94 59 37
231 212 247 237 240 269 11 305 306 313 330 315 304 298 301 288 356 255 216 182 178 162 194 167 134 112 88 66 76 77 264 224 218 200 205 219 193 226 218 232 100 51 264 272 27 16 51 122 136 140 144 148 149 152 154 152 151 146 147 140 136 132 126 121 122 120 120 119 116 115 117 125 111 103 96 102 112 118 136 138 118 97 108 102 77 80 63
242 235 237 227 230 253 265 289 291 264 267 277 296 293 299 359 255 249 282 206 150 217 177 143 165 110 79 160 181 88 37 326 242 208 213 224 194 235 227 205 117 135 142 131 67 15 13 10 77 141 148 151 152 151 144 141 140 142 137 134 135 133 127 128 127 123 119 116 116 119 117 104 102 100 109 121 125 158 154 124 129 122 107 116 119 98 82